Location: Rounton
(54.4000°N, 1.3500°W)
Time: 08:42:18
(UTC+00:00)

Altair - Pass Details

Date: 08 December 2021
Orbit: 1501 x 1683 km, 47.2° (Epoch: 24 January)

Event Time Altitude Azimuth Distance (km) Brightness Sun altitude
Rises 13:38:39 0° 203° (SSW) 4,815 12.5 9.8°
Reaches altitude 10° 13:42:25 10° 192° (SSW) 3,803 11.7 9.6°
Maximum altitude 13:49:54 27° 140° (SE) 2,675 9.2 9.1°
Drops below altitude 10° 13:57:12 10° 88° (E) 3,706 9.3 8.6°
Sets 14:00:47 0° 77° (ENE) 4,671 9.6 8.4°
